Tillbaka till svenska Fidonet
English   Information   Debug  
FILM   0/18
FNEWS_PUBLISH   4881
FN_SYSOP   42085
FN_SYSOP_OLD1   71952
FTP_FIDO   0/2
FTSC_PUBLIC   0/13948
FUNNY   0/4886
GENEALOGY.EUR   0/71
GET_INFO   105
GOLDED   0/408
HAM   3520/16617
HOLYSMOKE   0/6791
HOT_SITES   0/1
HTMLEDIT   0/71
HUB203   466
HUB_100   264
HUB_400   39
HUMOR   0/29
IC   1956/2851
INTERNET   0/424
INTERUSER   0/3
IP_CONNECT   719
JAMNNTPD   0/233
JAMTLAND   0/47
KATTY_KORNER   0/41
LAN   0/16
LINUX-USER   0/19
LINUXHELP   0/1155
LINUX   0/22287
LINUX_BBS   0/957
mail   18.68
mail_fore_ok   249
MENSA   0/341
MODERATOR   0/102
MONTE   0/992
MOSCOW_OKLAHOMA   0/1245
MUFFIN   0/783
MUSIC   0/321
N203_STAT   938
N203_SYSCHAT   313
NET203   321
NET204   69
NET_DEV   0/10
NORD.ADMIN   0/101
NORD.CHAT   0/2572
NORD.FIDONET   189
NORD.HARDWARE   0/28
NORD.KULTUR   0/114
NORD.PROG   0/32
NORD.SOFTWARE   0/88
NORD.TEKNIK   0/58
NORD   0/453
OCCULT_CHAT   0/93
OS2BBS   0/787
OS2DOSBBS   0/580
OS2HW   0/42
OS2INET   0/37
OS2LAN   0/134
OS2PROG   0/36
OS2REXX   0/113
OS2USER-L   207
OS2   0/4829
OSDEBATE   4000/18996
PASCAL   0/490
PERL   0/457
PHP   0/45
POINTS   0/405
POLITICS   0/29554
POL_INC   14383/14731
PSION   103
R20_ADMIN   1133
R20_AMATORRADIO   0/2
R20_BEST_OF_FIDONET   16
R20_CHAT   0/896
R20_DEPP   0/3
R20_DEV   400
R20_ECHO2   1788
R20_ECHOPRES   0/35
R20_ESTAT   0/719
R20_FIDONETPROG...
...RAM.MYPOINT
  0/2
R20_FIDONETPROGRAM   0/22
R20_FIDONET   0/248
R20_FILEFIND   0/24
R20_FILEFOUND   0/22
R20_HIFI   0/3
R20_INFO2   3681
R20_INTERNET   0/12940
R20_INTRESSE   0/60
R20_INTR_KOM   0/99
R20_KANDIDAT.CHAT   42
R20_KANDIDAT   28
R20_KOM_DEV   112
R20_KONTROLL   0/13360
R20_KORSET   0/18
R20_LOKALTRAFIK   0/24
R20_MODERATOR   0/1852
R20_NC   76
R20_NET200   245
R20_NETWORK.OTH...
...ERNETS
  0/13
R20_OPERATIVSYS...
...TEM.LINUX
  0/44
R20_PROGRAMVAROR   0/1
R20_REC2NEC   534
R20_SFOSM   0/341
R20_SF   0/108
R20_SPRAK.ENGLISH   0/1
R20_SQUISH   107
R20_TEST   2
R20_WORST_OF_FIDONET   20
RAR   0/9
RA_MULTI   106
RA_UTIL   0/162
REGCON.EUR   0/2067
REGCON   0/13
SCIENCE   0/1206
SF   0/239
SHAREWARE_SUPPORT   0/5146
SHAREWRE   0/14
SIMPSONS   0/169
STATS_OLD1   0/2539.065
STATS_OLD2   0/2530
STATS_OLD3   0/2395.095
STATS_OLD4   0/1692.25
SURVIVOR   0/495
SYSOPS_CORNER   0/3
SYSOP   0/84
TAGLINES   0/112
TEAMOS2   0/4530
TECH   0/2617
TEST.444   0/105
TRAPDOOR   0/19
TREK   0/755
TUB   0/290
UFO   0/40
UNIX   0/1316
USA_EURLINK   0/102
USR_MODEMS   0/1
VATICAN   0/2740
VIETNAM_VETS   0/14
VIRUS   0/378
VIRUS_INFO   0/201
VISUAL_BASIC   0/473
WHITEHOUSE   0/5187
WIN2000   0/101
WIN32   0/30
WIN95   0/4291
WIN95_OLD1   0/70272
WINDOWS   0/1517
WWB_SYSOP   0/419
WWB_TECH   0/810
ZCC-PUBLIC   0/1
ZEC   4

 
4DOS   0/134
ABORTION   0/7
ALASKA_CHAT   0/506
ALLFIX_FILE   0/1313
ALLFIX_FILE_OLD1   0/7997
ALT_DOS   0/152
AMATEUR_RADIO   0/1039
AMIGASALE   0/14
AMIGA   0/331
AMIGA_INT   0/1
AMIGA_PROG   0/20
AMIGA_SYSOP   0/26
ANIME   0/15
ARGUS   0/924
ASCII_ART   0/340
ASIAN_LINK   0/651
ASTRONOMY   0/417
AUDIO   0/92
AUTOMOBILE_RACING   0/105
BABYLON5   0/17862
BAG   135
BATPOWER   0/361
BBBS.ENGLISH   0/382
BBSLAW   0/109
BBS_ADS   0/5290
BBS_INTERNET   0/507
BIBLE   0/3563
BINKD   0/1119
BINKLEY   0/215
BLUEWAVE   0/2173
CABLE_MODEMS   0/25
CBM   0/46
CDRECORD   0/66
CDROM   0/20
CLASSIC_COMPUTER   0/378
COMICS   0/15
CONSPRCY   0/899
COOKING   41016
COOKING_OLD1   0/24719
COOKING_OLD2   0/40862
COOKING_OLD3   0/37489
COOKING_OLD4   0/35496
COOKING_OLD5   9370
C_ECHO   0/189
C_PLUSPLUS   0/31
DIRTY_DOZEN   0/201
DOORGAMES   0/2253
DOS_INTERNET   0/196
duplikat   6102
ECHOLIST   0/18295
EC_SUPPORT   0/318
ELECTRONICS   0/359
ELEKTRONIK.GER   1534
ENET.LINGUISTIC   0/13
ENET.POLITICS   0/4
ENET.SOFT   0/11701
ENET.SYSOP   34252
ENET.TALKS   0/32
ENGLISH_TUTOR   0/2000
EVOLUTION   0/1335
FDECHO   0/217
FDN_ANNOUNCE   0/7068
FIDONEWS   24977
FIDONEWS_OLD1   0/49742
FIDONEWS_OLD2   24982/35949
FIDONEWS_OLD3   99/30874
FIDONEWS_OLD4   0/37224
FIDO_SYSOP   12920
FIDO_UTIL   0/180
FILEFIND   0/209
FILEGATE   0/212
Möte HAM, 16617 texter
 lista första sista föregående nästa
Text 3366, 864 rader
Skriven 2009-12-10 22:30:19 av Amsat List (1:323/120.0)
Ärende: [keps]  orb09344.amsa
=============================
[keps]  orb09344.amsa

Return-Path: <keps-bounces@amsat.org>
X-Rcpt: craig.healy@chowda.com
X-UIDL: 1260501929.21651

SB KEPS @ AMSAT  $ORB09344.O
Orbital Elements  09344.OSCAR

HR AMSAT ORBITAL ELEMENTS FOR OSCAR SATELLITES
FROM WA5QGD FORT WORTH,TX December 10, 2009
Send Subscribe/unsubscribe to KEPS at http://www.amsat.org/mailman/listinfo/kep
BID: ORB09344.O
TO ALL RADIO AMATEURS BT

Satellite: AO-07
Catalog number: 07530
Epoch time:      09344.62039451
Element set:     651
Inclination:      101.4135 deg
RA of node:       002.7312 deg
Eccentricity:    0.0011832
Arg of perigee:   283.8784 deg
Mean anomaly:     076.0968 deg
Mean motion:   12.53577265 rev/day
Decay rate:       -2.7e-07 rev/day^2
Epoch rev:           60482
Checksum:              289

Satellite: FO-29
Catalog number: 24278
Epoch time:      09343.63850766
Element set:     195
Inclination:      098.5232 deg
RA of node:       193.8538 deg
Eccentricity:    0.0349814
Arg of perigee:   255.5290 deg
Mean anomaly:     100.6800 deg
Mean motion:   13.52947113 rev/day
Decay rate:        2.8e-07 rev/day^2
Epoch rev:           65747
Checksum:              333

Satellite: SO-33
Catalog number: 25509
Epoch time:      09344.75394707
Element set:     605
Inclination:      031.4286 deg
RA of node:       134.0606 deg
Eccentricity:    0.0353910
Arg of perigee:   082.2837 deg
Mean anomaly:     281.7818 deg
Mean motion:   14.28272887 rev/day
Decay rate:       -6.0e-08 rev/day^2
Epoch rev:           58109
Checksum:              321

Satellite: RS-22
Catalog number: 27939
Epoch time:      09344.68143357
Element set:     959
Inclination:      097.9173 deg
RA of node:       212.8521 deg
Eccentricity:    0.0012666
Arg of perigee:   297.5612 deg
Mean anomaly:     062.4298 deg
Mean motion:   14.63364356 rev/day
Decay rate:        3.3e-07 rev/day^2
Epoch rev:           33138
Checksum:              331

Satellite: VO-52
Catalog number: 28650
Epoch time:      09344.65354854
Element set:     384
Inclination:      097.7217 deg
RA of node:       040.1796 deg
Eccentricity:    0.0027326
Arg of perigee:   170.6757 deg
Mean anomaly:     189.5004 deg
Mean motion:   14.81652456 rev/day
Decay rate:       -5.7e-07 rev/day^2
Epoch rev:           24877
Checksum:              337

Satellite: SO-67
Catalog number: 35870
Epoch time:      09344.79474714
Element set:     249
Inclination:      097.3606 deg
RA of node:       033.2408 deg
Eccentricity:    0.0011912
Arg of perigee:   006.8146 deg
Mean anomaly:     126.7752 deg
Mean motion:   15.22880313 rev/day
Decay rate:       3.41e-06 rev/day^2
Epoch rev:            1279
Checksum:              304

/EX
SB KEPS @ AMSAT  $ORB09344.D
Orbital Elements  09344.MICROS

HR AMSAT ORBITAL ELEMENTS FOR THE MICROSATS
FROM WA5QGD FORT WORTH,TX December 10, 2009
Send Subscribe/unsubscribe to KEPS at http://www.amsat.org/mailman/listinfo/kep
BID: ORB09344.D
TO ALL RADIO AMATEURS BT

Satellite: UO-11
Catalog number: 14781
Epoch time:      09343.55493401
Element set:     125
Inclination:      098.0834 deg
RA of node:       029.4387 deg
Eccentricity:    0.0009690
Arg of perigee:   126.0865 deg
Mean anomaly:     234.1265 deg
Mean motion:   14.79751161 rev/day
Decay rate:      -2.11e-06 rev/day^2
Epoch rev:           38376
Checksum:              305

Satellite: AO-16
Catalog number: 20439
Epoch time:      09344.44345798
Element set:     770
Inclination:      098.3062 deg
RA of node:       305.0598 deg
Eccentricity:    0.0011154
Arg of perigee:   012.2297 deg
Mean anomaly:     347.9161 deg
Mean motion:   14.31841547 rev/day
Decay rate:       -4.0e-08 rev/day^2
Epoch rev:            3837
Checksum:              303

Satellite: LO-19
Catalog number: 20442
Epoch time:      09344.05246595
Element set:     678
Inclination:      098.2678 deg
RA of node:       311.2564 deg
Eccentricity:    0.0011839
Arg of perigee:   009.0660 deg
Mean anomaly:     351.0733 deg
Mean motion:   14.32075328 rev/day
Decay rate:        3.0e-08 rev/day^2
Epoch rev:            3848
Checksum:              299

Satellite: AO-27
Catalog number: 22825
Epoch time:      09343.99999726
Element set:     404
Inclination:      098.4640 deg
RA of node:       292.0933 deg
Eccentricity:    0.0009378
Arg of perigee:   106.1669 deg
Mean anomaly:     254.0535 deg
Mean motion:   14.29280500 rev/day
Decay rate:       -2.0e-08 rev/day^2
Epoch rev:           84502
Checksum:              319

Satellite: IO-26
Catalog number: 22826
Epoch time:      09344.86906615
Element set:     140
Inclination:      098.4555 deg
RA of node:       293.6121 deg
Eccentricity:    0.0009813
Arg of perigee:   097.8338 deg
Mean anomaly:     262.3962 deg
Mean motion:   14.29534184 rev/day
Decay rate:        2.0e-08 rev/day^2
Epoch rev:           84525
Checksum:              322

Satellite: GO-32
Catalog number: 25397
Epoch time:      09344.82230806
Element set:      60
Inclination:      098.3173 deg
RA of node:       357.6192 deg
Eccentricity:    0.0002175
Arg of perigee:   094.6356 deg
Mean anomaly:     265.5056 deg
Mean motion:   14.23167500 rev/day
Decay rate:       -7.1e-07 rev/day^2
Epoch rev:           59325
Checksum:              300

Satellite: NO-44
Catalog number: 26931
Epoch time:      09343.53950572
Element set:     333
Inclination:      067.0539 deg
RA of node:       332.5799 deg
Eccentricity:    0.0007204
Arg of perigee:   269.6160 deg
Mean anomaly:     090.4124 deg
Mean motion:   14.29576141 rev/day
Decay rate:        4.0e-08 rev/day^2
Epoch rev:           42764
Checksum:              303

